Regional Weather Roundup
Issued by NWS

Home | Current Version | Previous Version | Text Only | Print | Product List | Glossary On
Versions: 1 2 3 4 5 6 7 8 9 10 11 12 13 14 15 16 17 18 19 20 21 22 23 24 25 26 27 28 29 30 31 32 33 34 35 36 37 38 39 40 41 42 43 44 45 46 47 48 49 50
000
ASUS43 KMPX 011610
RWRMN
WEATHER ROUNDUP FOR MINNESOTA
NATIONAL WEATHER SERVICE TWIN CITIES/CHANHASSEN MN
1000 AM CST MON MAR 01 2021


NOTE: "FAIR" INDICATES FEW OR NO CLOUDS BELOW 12,000 FEET WITH NO
SIGNIFICANT WEATHER AND/OR OBSTRUCTIONS TO VISIBILITY. N/A MEANS
CURRENT SKY AND/OR WEATHER CONDITIONS ARE NOT AVAILABLE.

MNZ060>063-068>070-011700-
   Twin Cities Metro

CITY           SKY/WX    TMP DP  RH WIND       PRES   REMARKS
TWIN CITIES    SUNNY     16   5  62 N8        30.38R WCI   5
ST PAUL        SUNNY     16   3  56 NW12      30.40R WCI   3
CRYSTAL        SUNNY     14   1  56 N6        30.37R WCI   5
BLAINE         SUNNY     14   1  57 N9        30.38R WCI   2
LAKEVILLE      SUNNY     16   3  57 N8        30.37R WCI   5
EDEN PRAIRIE   SUNNY     16   1  51 N7        30.37R WCI   6
SOUTH ST PAUL  SUNNY     15   2  54 N9        30.38R WCI   4
LAKE ELMO      FAIR      14   0  52 MISG      30.38R
$$
MNZ001>005-007-008-013>017-022>024-027-028-011700-
   Northwest Minnesota

CITY           SKY/WX    TMP DP  RH WIND       PRES   REMARKS
BEMIDJI        SUNNY     -2 -14  55 CALM      30.36S
HALLOCK        SUNNY     -2 -15  55 CALM      30.42S
ROSEAU         SUNNY      0 -18  42 SW5       30.40R WCI -10
WARROAD        SUNNY     -6 -15  65 S3        30.39R
THIEF RVR FALL SUNNY      1 -12  54 CALM      30.41R
CROOKSTON      SUNNY      0 -11  60 CALM      30.44R
FOSSTON        SUNNY     -4 -15  59 CALM      30.38S
DETROIT LAKES  SUNNY      1  -9  60 CALM      30.37S
MOORHEAD       SUNNY      1  -9  60 N5        30.43R WCI  -8
PARK RAPIDS    SUNNY      2 -11  54 W3        30.34S
MAHNOMEN       FAIR       1 -11  58 CALM      30.38S
$$
MNZ006-009>011-018-025>026-011700-
   North Central Minnesota

CITY           SKY/WX    TMP DP  RH WIND       PRES   REMARKS
BAUDETTE       SUNNY     -7 -15  68 CALM      30.37S
FLAG ISLAND    MOSUNNY   -9 -18  64 CALM      30.37S
INTL FALLS     SUNNY     -2 -17  49 VRB3      30.35R
WASKISH        SUNNY     -4 -15  59 W3        30.37S
BIG FORK       SUNNY      0 -18  42 N5        30.38S WCI -10
LONGVILLE      SUNNY      1 -15  46 CALM      30.36S
GRAND RAPIDS   SUNNY      0 -14  51 NW5       30.37R WCI -10
CRANE LAKE       N/A     -2 -17  50 NW6       30.37R WCI -14
ORR            SUNNY     -2 N/A N/A W6          N/A  WCI -14
COOK           SUNNY      0 -15  50 W8        30.32S WCI -15
WALKER         SUNNY      1 -14  49 CALM      30.36S
$$
MNZ012-019>021-037-011700-
   Northeast Minnesota

CITY           SKY/WX    TMP DP  RH WIND       PRES   REMARKS
DULUTH         SUNNY      3 -14  45 N7        30.30R WCI  -9
ELY            SUNNY     -2 -18  46 NW9       30.29R WCI -18
HIBBING        SUNNY      0 -14  51 NW8       30.32R WCI -14
EVELETH        SUNNY      1 -14  50 NW8       30.32S WCI -14
DULUTH HARBOR  SUNNY      7 -11  43 NW7       30.40S WCI  -5
TWO HARBORS    SUNNY      3 -17  39 W8        30.32R WCI -10
SILVER BAY     SUNNY      7 -18  30 CALM      30.31R
GRAND MARAIS     N/A      7 -13  39 VRB5      30.33R WCI  -2
G MARAIS ARPRT SUNNY      1 -18  39 NW12      30.16R WCI -15
$$
MNZ029>031-032-039>041-046>048-054>057-064-011700-
   West Central Minnesota

CITY           SKY/WX    TMP DP  RH WIND       PRES   REMARKS
FERGUS FALLS   SUNNY      3  -6  66 E5        30.34F WCI  -6
WHEATON        SUNNY      5   0  78 N3        30.43R
MORRIS         SUNNY      9  -2  61 NE7       30.39F WCI  -3
ALEXANDRIA     SUNNY      8   0  69 N6        30.36S WCI  -2
ELBOW LAKE     FAIR       2  -3  79 E5        30.38F WCI  -7
WADENA         SUNNY      3  -8  60 CALM      30.36S
GLENWOOD       SUNNY      9   1  72 NE7       30.36F WCI  -3
APPLETON       SUNNY     12   3  67 NE6       30.40S WCI   3
BENSON         SUNNY      9   1  72 NE6       30.40F WCI  -1
ORTONVILLE     SUNNY     10   1  67 N6        30.40S WCI   1
MADISON        SUNNY     12   3  67 N6        30.42S WCI   3
WILLMAR        FAIR      12   3  67 CALM      30.41S
$$
MNZ033>034-036-042>043-049>051-058-059-011700-
   Central Minnesota

CITY           SKY/WX    TMP DP  RH WIND       PRES   REMARKS
ST CLOUD       SUNNY      9  -3  58 N9        30.38R WCI  -4
SAUK CENTRE      N/A      9  -4  57 N7        30.37S WCI  -3
PAYNESVILLE    SUNNY     10   3  72 N8        30.38S WCI  -1
AITKIN         SUNNY      5 -15  39 NW5       30.37R WCI  -4
PINE RIVER     SUNNY      5 -11  47 N5        30.39R WCI  -4
BRAINERD       SUNNY      5 -11  47 NW6       30.38R WCI  -6
STAPLES        SUNNY      7  -2  66 CALM      30.37S
LONG PRAIRIE   FAIR       9  -4  56 N6        30.37S WCI  -1
LITTLE FALLS   SUNNY     10 -15  31 NE3       30.38S
CAMP RIPLEY    FAIR       7  -8  50 N8        30.39R WCI  -6
LITCHFIELD     SUNNY     12   5  73 NE3       30.39R
BUFFALO        SUNNY     13   4  67 MISG      30.40R
HUTCHINSON     SUNNY     13   4  66 N6        30.40R WCI   4
$$
MNZ037-044-045-052-053-011700-
   East Central Minnesota

CITY           SKY/WX    TMP DP  RH WIND       PRES   REMARKS
PRINCETON      SUNNY     10  -4  52 N7        30.38R WCI   0
MORA           SUNNY     12  -4  48 NW5       30.39R WCI   4
CAMBRIDGE      SUNNY     12  -2  52 N8        30.39R WCI   1
RUSH CITY      SUNNY     11  -5  49 NW7       30.39R WCI   0
MOOSE LAKE     SUNNY      9 -13  37 NW6       30.35R WCI  -1
HINCKLEY       SUNNY     10  -6  48 CALM      30.38R
CLOQUET        SUNNY      3 -17  39 NW5       30.32R WCI  -6
MCGREGOR       SUNNY      5 -13  43 N5        30.36R WCI  -4
$$
MNZ071>073-080-081-089-090-097-098-011700-
   Southwest Minnesota

CITY           SKY/WX    TMP DP  RH WIND       PRES   REMARKS
MONTEVIDEO     SUNNY     10   1  67 NE6       30.41R WCI   1
GRANITE FALLS  SUNNY     15   7  71 N9        30.42R WCI   3
CANBY          SUNNY     13   3  65 N6        30.41S WCI   4
MARSHALL       SUNNY     13   6  74 N10       30.40R WCI   0
REDWOOD FALLS  SUNNY     15   6  67 N9G18     30.40R WCI   3
OLIVIA         SUNNY     10   5  79 N9        30.39S WCI  -2
PIPESTONE        N/A     14   9  79 NE14      30.32S WCI  -1
WINDOM         PTSUNNY   18  12  79 N12       30.35R WCI   5
WORTHINGTON    CLOUDY    20  14  77 N13       30.34R WCI   7
JACKSON        PTSUNNY   19  14  79 N15       30.35R WCI   5
TRACY          FLURRIES  14   8  77 N8        30.38R WCI   2
SLAYTON        SUNNY     14   9  82 N13       30.35R WCI   0
$$
MNZ065>067-074>077-082>085-091>093-011700-
   South Central Minnesota

CITY           SKY/WX    TMP DP  RH WIND       PRES   REMARKS
MANKATO        SUNNY     16  11  80 N14       30.38R WCI   2
NEW ULM        SUNNY     16   9  73 N9        30.39R WCI   4
ST JAMES       MOSUNNY   18  12  79 N13       30.37R WCI   4
FAIRMONT       MOSUNNY   22  15  75 N16       30.36R WCI   8
GLENCOE        SUNNY     12   4  70 N8        30.39R WCI   0
FARIBAULT      SUNNY     16   9  73 N8        30.36R WCI   5
OWATONNA       SUNNY     16   7  67 N12       30.34R WCI   3
WASECA         SUNNY     18   9  68 N12       30.36R WCI   5
ALBERT LEA     MOSUNNY   18  14  86 N10       30.33R WCI   6
$$
MNZ078>079-086>088-094>096-011700-
   Southeast Minnesota

CITY           SKY/WX    TMP DP  RH WIND       PRES   REMARKS
ROCHESTER      SUNNY     17   8  67 N14       30.30R WCI   3
RED WING       SUNNY     18   7  62 N8        30.36R WCI   7
STANTON        SUNNY     16   7  69 N8        30.36R WCI   5
DODGE CENTER   SUNNY     16   9  73 N10       30.31R WCI   3
WINONA         SUNNY     23  12  63 N6        30.34S WCI  16
AUSTIN         SUNNY     18  12  79 N12G21    30.32R WCI   5
PRESTON        SUNNY     17   8  69 N12       30.30R WCI   4
$$
ABBREVIATIONS USED IN REMARKS
   TC - TEMPERATURES IN CELSIUS
  WCI - WIND CHILL INDEX
   HX - HEAT INDEX
  VSB - VISIBILITY
$$




USA.gov is the U.S. government's official web portal to all federal, state and local government web resources and services.